Location: Kosice
(0.0000°N, 21.2500°E)
Time: 19:16:32
(UTC+02:00)

Palapa 6 Rocket - Visible Passes

Search period start: 17 May 2021 00:00
Search period end: 27 May 2021 00:00
Orbit: 484 x 1216 km, 22.7° (Epoch: 16 May)

Date Brightness Start Highest point End Pass type
(mag) Time Alt. Az. Time Alt. Az. Time Alt. Az.
17 May 4.4 05:03:11 20° NNW 05:03:35 20° NNW 05:06:37 10° NNE visible
17 May 6.1 19:39:41 10° SSW 19:42:02 12° SSW 19:44:17 10° S visible
18 May 4.8 04:49:16 17° NNW 04:49:16 17° NNW 04:51:24 10° NNE visible
18 May 6.2 19:24:42 10° SSW 19:27:06 12° SSW 19:29:24 10° S visible
19 May 5.3 04:35:18 12° N 04:35:18 12° N 04:36:09 10° NNE visible
19 May 6.2 19:09:43 10° SSW 19:12:10 12° S 19:14:32 10° S visible
20 May 6.2 18:54:42 10° SSW 18:57:13 12° S 18:59:41 10° S visible
21 May 6.3 20:31:21 10° S 20:31:35 10° S 20:31:35 10° S visible
22 May 6.1 20:15:25 10° SSW 20:17:39 12° S 20:17:39 12° S visible
23 May 6.0 19:59:44 10° SSW 20:03:20 14° S 20:03:46 14° SSE visible
24 May 5.9 19:44:09 10° SSW 19:48:23 15° S 19:49:56 14° SSE visible
25 May 5.8 19:28:38 10° SSW 19:33:24 17° S 19:36:10 14° SE visible
25 May 6.4 21:17:04 10° SW 21:18:03 13° SW 21:18:03 13° SW visible
26 May 5.8 19:13:11 10° SSW 19:18:23 18° SSE 19:22:30 12° SE visible
26 May 5.9 21:01:37 10° SW 21:04:23 21° SSW 21:04:23 21° SSW visible
